This is the latest recevied weather packets stored in our database for station/object KC0UFP. If no packets are shown the sender has not sent any weather packets the latest 10 day(s).
| Time | Temp. | Humidity | Pressure | Rain* | Wind** | Luminosity | Snow |
|---|---|---|---|---|---|---|---|
| 1777646072 | 14.44° C | 46% | 1018.3 hPa | 0 mm | - | 409 W/m² | - |
| 1777645768 | 14.44° C | 47% | 1018.3 hPa | 0 mm | - | 535 W/m² | - |
| 1777645466 | 14.44° C | 51% | 1018.5 hPa | 0 mm | - | 569 W/m² | - |
| 1777645161 | 13.89° C | 56% | 1018.2 hPa | 0 mm | - | 512 W/m² | - |
| 1777644857 | 13.89° C | 57% | 1018.1 hPa | 0 mm | - | 480 W/m² | - |
| 1777644555 | 13.89° C | 58% | 1017.8 hPa | 0 mm | - | 508 W/m² | - |
| 1777644251 | 13.89° C | 57% | 1017.8 hPa | 0 mm | - | 502 W/m² | - |
| 1777643948 | 13.89° C | 60% | 1017.6 hPa | 0 mm | - | 483 W/m² | - |
| 1777643645 | 13.89° C | 65% | 1017.7 hPa | 0 mm | - | 431 W/m² | - |
| 1777643342 | 13.89° C | 67% | 1017.6 hPa | 0 mm | - | 416 W/m² | - |
| 1777643039 | 13.33° C | 65% | 1017.8 hPa | 0 mm | - | 377 W/m² | - |
| 1777642735 | 13.33° C | 65% | 1017.6 hPa | 0 mm | - | 326 W/m² | - |
| 1777642432 | 13.89° C | 67% | 1017.7 hPa | 0 mm | - | 385 W/m² | - |
| 1777642128 | 13.33° C | 68% | 1017.7 hPa | 0 mm | - | 341 W/m² | - |
| 1777641825 | 13.33° C | 69% | 1017.6 hPa | 0 mm | - | 320 W/m² | - |
| 1777641520 | 13.33° C | 69% | 1017.6 hPa | 0 mm | - | 303 W/m² | - |
| 1777641215 | 13.33° C | 72% | 1017.7 hPa | 0 mm | - | 268 W/m² | - |
| 1777640912 | 13.33° C | 71% | 1017.7 hPa | 0 mm | - | 257 W/m² | - |
| 1777640609 | 12.78° C | 73% | 1017.6 hPa | 0 mm | - | 245 W/m² | - |
| 1777640305 | 12.78° C | 75% | 1017.6 hPa | 0 mm | - | 201 W/m² | - |
| 1777640002 | 12.78° C | 75% | 1017.5 hPa | 0 mm | - | 211 W/m² | - |
| 1777639699 | 12.78° C | 76% | 1017.6 hPa | 0 mm | - | 192 W/m² | - |
| 1777639397 | 12.78° C | 76% | 1017.4 hPa | 0 mm | - | 172 W/m² | - |
| 1777639096 | 12.78° C | 76% | 1017.4 hPa | 0 mm | - | 154 W/m² | - |
| 1777638795 | 12.78° C | 77% | 1017.3 hPa | 0 mm | - | 153 W/m² | - |
* Rain latest hour (hover to see other rain measurements)
** Current wind speed in m/s (hover to see current wind gust speed)